User: anonymous   Login
Location: Mount Tamalpais State Park
(37.9108°N, 122.6128°W)
Time: 17:27:18
(UTC-07:00)
Language:

Cosmos 1814 Rocket - Orbit

View from above orbital plane
View from above orbital plane
View from above satellite
View from above satellite

Ground track
Ground track

The orbit data is extracted from the following two-line orbital elements,

1 17304U 87006B   16121.49900051  .00000020  00000-0  15167-4 0  9991
2 17304  74.0570 129.1730 0028519  70.5823 289.8409 14.37565303533999
Epoch (UTC): 30 April 2016 11:58:33
Eccentricity: 0.0028519
inclination: 74.0570°
perigee height: 746 km
apogee height: 787 km
right ascension of ascending node: 129.1730°
argument of perigee: 70.5823°
revolutions per day: 14.37565303
mean anomaly at epoch: 289.8409°
orbit number at epoch: 53399

The dashed part of the orbit path shows where the satellite is in the earth's shadow,  

DLR